Location: St. Louis
(38.6270°N, 90.1994°W)
Time: 09:38:58
(UTC-06:00)

SR - Pass Details

Date: 01 December 2021
Orbit: 582 x 872 km, 66.7° (Epoch: 21 January)

Event Time Altitude Azimuth Distance (km) Brightness Sun altitude
Rises 07:59:24 0° 345° (NNW) 2,820 ? 8.9°
Reaches altitude 10° 08:02:03 10° 1° (N) 1,935 ? 9.3°
Maximum altitude 08:05:23 21° 52° (NE) 1,374 ? 9.9°
Drops below altitude 10° 08:08:50 10° 102° (ESE) 2,010 ? 10.4°
Sets 08:11:39 0° 118° (ESE) 2,964 ? 10.8°
